Location: Unnamed
(23.5608°S, 46.6833°W)
Time: 22:44:05
(UTC-03:00)

Hubble Space Telescope - Visible Passes

Search period start: 28 November 2022 00:00
Search period end: 08 December 2022 00:00
Orbit: 530 x 534 km, 28.5° (Epoch: 27 November)

Date Brightness Start Highest point End Pass type
(mag) Time Alt. Az. Time Alt. Az. Time Alt. Az.
28 Nov 1.0 03:52:32 35° WNW 03:53:39 44° NNW 03:57:34 10° NE visible
28 Nov 2.7 19:13:37 10° N 19:15:32 13° NNE 19:17:00 11° NE visible
28 Nov 3.5 20:52:14 10° NW 20:52:17 10° NW 20:52:17 10° NW visible
29 Nov 1.6 03:41:41 33° N 03:41:41 33° N 03:44:46 10° NE visible
29 Nov 2.4 19:00:10 10° NNW 19:02:52 17° NNE 19:05:33 10° ENE visible
29 Nov 2.2 20:39:33 10° WNW 20:41:37 28° NW 20:41:37 28° NW visible
30 Nov 2.9 03:31:01 15° NNE 03:31:01 15° NNE 03:31:52 10° NNE visible
30 Nov 0.7 20:26:53 10° WNW 20:30:45 76° NW 20:30:45 76° NW visible
01 Dec 0.7 20:14:16 10° WNW 20:18:24 82° SSW 20:19:39 44° ESE visible
02 Dec 1.0 20:01:41 10° W 20:05:48 70° SSW 20:08:20 22° ESE visible
02 Dec 3.8 21:43:11 10° WSW 21:43:35 12° WSW 21:43:35 12° WSW visible
03 Dec 1.2 19:49:07 10° W 19:53:13 60° SSW 19:56:48 13° ESE visible
03 Dec 3.3 21:30:39 10° WSW 21:32:01 19° WSW 21:32:01 19° WSW visible
04 Dec 1.5 19:36:35 10° W 19:40:38 53° S 19:44:41 10° ESE visible
04 Dec 2.8 21:18:04 10° WSW 21:20:19 27° SW 21:20:19 27° SW visible
05 Dec 1.7 19:24:02 10° W 19:28:03 48° S 19:32:04 10° ESE visible
05 Dec 2.2 21:05:29 10° WSW 21:08:28 36° SSW 21:08:28 36° SSW visible
06 Dec 1.8 19:11:30 10° W 19:15:28 44° S 19:19:27 10° ESE visible
06 Dec 1.7 20:52:53 10° WSW 20:56:32 44° S 20:56:32 44° S visible
07 Dec 1.4 20:40:16 10° WSW 20:44:17 49° S 20:44:31 48° SSE visible
